Regional Weather Roundup
Issued by NWS

Home | Current Version | Previous Version | Text Only | Print | Product List | Glossary Off
Versions: 1 2 3 4 5 6 7 8 9 10 11 12 13 14 15 16 17 18 19 20 21 22 23 24 25 26 27 28 29 30 31 32 33 34 35 36 37 38 39 40 41 42 43 44 45 46 47 48 49 50

000
ASUS43 KDMX 151207
RWRIA

WEATHER ROUNDUP FOR IOWA
NATIONAL WEATHER SERVICE DES MOINES IA
700 AM CDT MON SEP 15 2014

NOTE: "FAIR" INDICATES FEW OR NO CLOUDS BELOW 12,000 FEET WITH NO
SIGNIFICANT WEATHER AND/OR OBSTRUCTIONS TO VISIBILITY.

* - THESE STATIONS ARE NOT NWS STATIONS...THUS NOT UNDER NWS
QUALITY CONTROL.  THEY ALSO DO NOT REPORT WEATHER SUCH
AS PRECIPITATION OR FOG.

IAZ001>003-012>014-020>022-031>034-043>046-151300-
   NORTHWEST IOWA

CITY           SKY/WX    TMP DP  RH WIND       PRES   REMARKS
CARROLL *      PTCLDY    50  50 100 N8        30.11R
CHEROKEE *     DRIZZLE   50  48  94 N16       30.19R
DENISON *      MOCLDY    50  50 100 N8G15     30.10R
LE MARS *        N/A     50  48  93 NE12      30.20R
ORANGE CITY *  DRIZZLE   50  46  87 N7        30.21R
SHELDON *      LGT RAIN  48  48 100 N8        30.21R
SIOUX CITY     CLOUDY    53  47  79 N15       30.19R
6HR MIN TEMP:  52; 6HR MAX TEMP:  56;

SPENCER        LGT RAIN  49  47  93 N10       30.20R
6HR MIN TEMP:  49; 6HR MAX TEMP:  53; 6HR PCP:  0.10;

STORM LAKE *   CLOUDY    50  50 100 N16G24    30.15R
$$

IAZ055>058-069>071-079>083-090>094-151300-
   SOUTHWEST IOWA

CITY           SKY/WX    TMP DP  RH WIND       PRES   REMARKS
ATLANTIC *     CLOUDY    59  57  94 CALM      30.08R
AUDUBON *      CLEAR     57  54  88 N3        30.10R
CLARINDA *     CLOUDY    61  59  94 CALM      30.08R
COUNCIL BLFS * CLOUDY    59  59 100 N6        30.08R
CRESTON *      CLOUDY    59  57  94 CALM      30.07S
HARLAN  *      CLOUDY    57  57 100 CALM      30.13R
LAMONI         CLOUDY    58  56  93 E6        30.04S
6HR MIN TEMP:  58; 6HR MAX TEMP:  60; 6HR PCP:  0.07;

SHENANDOAH *     N/A     61  59  94 N7        30.08R
$$

IAZ047>049-059>061-072>074-084-151300-
   CENTRAL IOWA

CITY           SKY/WX    TMP DP  RH WIND       PRES   REMARKS
AMES           CLEAR     52  52 100 CALM      30.08S
6HR MIN TEMP:  51; 6HR MAX TEMP:  56;

ANKENY *       CLOUDY    57  57 100 CALM      30.08R
CHARITON *     CLOUDY    59  57  94 NE6       30.06S
DES MOINES     CLOUDY    59  56  89 NE5       30.07R
6HR MIN TEMP:  58; 6HR MAX TEMP:  63; 6HR PCP:  0.02;

GRINNELL*      CLOUDY    55  54  94 CALM      30.09S
KNOXVILLE *    LGT RAIN  57  55  94 E6        30.05F
MARSHALLTOWN   PTCLDY    49  47  93 E5        30.08S
6HR MIN TEMP:  48; 6HR MAX TEMP:  54;

PELLA *        CLOUDY    57  56  97 E3        30.08F
PERRY *          N/A     55  54  94 CALM      30.07S
$$

IAZ004>006-015-016-023>025-035-036-151300-
   NORTH CENTRAL IOWA

CITY           SKY/WX    TMP DP  RH WIND       PRES   REMARKS
ALGONA *       RAIN      50  48  93 N9        30.17R
CLARION *        N/A     52  48  87 NE10G17   30.12R
ESTHERVILLE    LGT RAIN  48  47  96 N8        30.19R
6HR MIN TEMP:  48; 6HR MAX TEMP:  51; 6HR PCP:  0.30;

FORT DODGE *   CLOUDY    52  46  82 N8        30.13R
MASON CITY     RAIN      49  48  97 N12       30.17R FOG
6HR MIN TEMP:  49; 6HR MAX TEMP:  52; 6HR PCP:  0.03;

FOREST CITY *  RAIN      50  50 100 N7        30.16R
IOWA FALLS *   MOCLDY    52  50  93 NE7       30.11S
$$

IAZ007>011-017>019-026>030-037>042-050>054-066-151300-
   NORTHEAST IOWA

CITY           SKY/WX    TMP DP  RH WIND       PRES   REMARKS
CEDAR RAPIDS   CLOUDY    54  54 100 SE3       30.09R
6HR MIN TEMP:  50; 6HR MAX TEMP:  56; 6HR PCP:  0.06;

CHARLES CITY * MOCLDY    52  48  87 NE10      30.13S
CLINTON *      CLOUDY    54  50  87 S3        30.15S
DECORAH *      CLOUDY    50  48  93 VRB5      30.14R
DUBUQUE        MOCLDY    50  48  93 CALM      30.13S
6HR MIN TEMP:  48; 6HR MAX TEMP:  52;

MONTICELLO *   CLOUDY    52  50  93 CALM      30.11R
OELWEIN *      MOCLDY    52  50  93 NE6       30.12S
WATERLOO       MOCLDY    50  49  96 N5        30.11R
6HR MIN TEMP:  48; 6HR MAX TEMP:  55;

$$

IAZ064-065-067-068-078-151300-
   EAST CENTRAL IOWA

CITY           SKY/WX    TMP DP  RH WIND       PRES   REMARKS
DAVENPORT      CLOUDY    54  50  86 SE5       30.14R
6HR MIN TEMP:  50; 6HR MAX TEMP:  56; 6HR PCP:  0.07;

IOWA CITY      CLOUDY    55  54  96 CALM      30.10F
6HR MIN TEMP:  54; 6HR MAX TEMP:  57; 6HR PCP:  0.03;

MT. PLEASANT * RAIN      56  55  95 SE5       30.08F
MUSCATINE *    MOCLDY    55  54  94 NE6       30.10F
QUAD CITIES    CLOUDY    54  52  93 CALM      30.13S
6HR MIN TEMP:  50; 6HR MAX TEMP:  56; 6HR PCP:  0.21;

$$

IAZ062-063-075>077-085>089-095>099-151300-
   SOUTHEAST IOWA

CITY           SKY/WX    TMP DP  RH WIND       PRES   REMARKS
BURLINGTON     CLOUDY    60  50  69 E5        30.10F
6HR MIN TEMP:  56; 6HR MAX TEMP:  60;

FAIRFIELD *    HVY RAIN  57  55  94 NW8       30.10R
FORT MADISON * CLOUDY    59  52  77 CALM      30.11R
KEOKUK *       CLOUDY    57  54  88 E5        30.08F
OSKALOOSA *    LGT RAIN  56  55  97 CALM      30.10F
CENTERVILLE *  LGT RAIN  57  57 100 E6        30.08R
OTTUMWA        LGT RAIN  57  56  96 CALM      30.09R
6HR MIN TEMP:  56; 6HR MAX TEMP:  58; 6HR PCP:  0.20;

WASHINGTON *   LGT RAIN  55  55 100 CALM      30.11R
$$

ABBREVIATIONS USED IN REMARKS
   TC - TEMPERATURES IN CELSIUS
  WCI - WIND CHILL INDEX
   HX - HEAT INDEX
  VSB - VISIBILITY
$$




USA.gov is the U.S. government's official web portal to all federal, state and local government web resources and services.